Weather in Kargala

Russia / Tomsk District     56°37′11″N   83°57′29″E
temp.,
°C
wind,
m/s
gust,
m/s
humid.,
%
clouds,
%
prec.,
mm/h
press.,
hPa
HPBL,
m
17 january, mon
mon1701:00−3se41396100 1.3 1008497
04:00+1s51499100 0.8 1005636
07:00+2ssw61497100 0.8 1007815
10:00+1sw61287100 0.1 10091044
13:00−1sw61280100 0.1 1011983
16:00−3ssw5128357 0.0 1013804
19:00−6ssw5138611 0.0 1016597
22:00−8ssw6148656 0.0 1018570
18 january, tue
tue1801:00−10ssw514906 0.0 1019510
04:00−12ssw5139214 0.0 1020421
07:00−12ssw5139213 0.0 1022360
10:00−13ssw5129213 0.0 1023346
13:00−11ssw5139170 0.0 1023461
16:00−10ssw4129191 0.0 1024550
19:00−13ssw4109560 0.0 1025263
22:00−14ssw4109414 0.0 1026232
19 january, wed
wed1901:00−16ssw410946 0.0 1026221
04:00−16ssw411946 0.0 1026222
07:00−16ssw4119451 0.0 1026224
10:00−15ssw4119467 0.0 1026253
13:00−12ssw4109160 0.0 1026311
16:00−11ssw4109246 0.0 1025367
19:00−13ssw4109539 0.0 1026230
22:00−14ssw39946 0.0 1026201
20 january, thu
thu2001:00−16ssw389515 0.0 1027157
04:00−17ssw38956 0.0 1027151
07:00−18ssw37965 0.0 1027132
10:00−18ssw37965 0.0 1029127
13:00−14sw359060 0.0 1029172
16:00−12ssw259368 0.0 1029193
19:00−14ssw2597100 0.0 102996
22:00−14sw2497100 0.0 103070
21 january, fri
fri2101:00−18sw119959 0.0 103126
04:00−20ssw2110095 0.0 103127
07:00−19sw1210097 0.1 103138
10:00−20sw1110099 0.0 103231
13:00−14sw119598 0.1 103296
16:00−12w119670 0.0 103149
19:00−18w1110067 0.0 10329
22:00−18nnw11100100 0.0 10329